Location: Arrodets-la-Barthe
(43.0306°N, 0.2829°E)
Time: 10:08:38
(UTC+00:00)

CSL-04 Rocket - Pass Details

Date: 30 May 2022
Orbit: 807 x 859 km, 98.9° (Epoch: 30 June)

Event Time Altitude Azimuth Distance (km) Brightness Sun altitude
Rises 20:41:59 0° 200° (SSW) 3,321 6.5 -11.2°
Reaches altitude 10° 20:44:46 10° 214° (SW) 2,401 6.0 -11.6°
Maximum altitude 20:48:57 23° 267° (W) 1,670 5.8 -12.1°
Drops below altitude 10° 20:53:12 10° 319° (NW) 2,440 7.6 -12.6°
Sets 20:56:04 0° 333° (NNW) 3,388 8.5 -13.0°
